TimePDT,TemperatureF,Dew PointF,Humidity,Sea Level PressureIn,VisibilityMPH,Wind Direction,Wind SpeedMPH,Gust SpeedMPH,PrecipitationIn,Events,Conditions,WindDirDegrees,DateUTC
12:56 AM,48.0,26.1,42,29.65,10.0,North,19.6,28.8,N/A,,Clear,350,2013-09-26 07:56:00
1:56 AM,46.0,27.0,47,29.68,10.0,North,11.5,20.7,N/A,,Clear,350,2013-09-26 08:56:00
2:56 AM,46.0,26.1,46,29.67,10.0,North,10.4,-,N/A,,Clear,350,2013-09-26 09:56:00
3:56 AM,45.0,25.0,46,29.69,10.0,North,9.2,-,N/A,,Clear,350,2013-09-26 10:56:00
4:56 AM,43.0,25.0,49,29.70,10.0,North,9.2,-,N/A,,Clear,360,2013-09-26 11:56:00
5:56 AM,43.0,25.0,49,29.73,10.0,North,10.4,-,N/A,,Overcast,360,2013-09-26 12:56:00
6:56 AM,42.1,26.1,53,29.76,10.0,North,9.2,-,N/A,,Overcast,360,2013-09-26 13:56:00
7:56 AM,48.0,27.0,44,29.77,10.0,North,11.5,-,N/A,,Scattered Clouds,360,2013-09-26 14:56:00
8:56 AM,52.0,25.0,35,29.78,10.0,NNE,17.3,23.0,N/A,,Clear,20,2013-09-26 15:56:00
9:56 AM,54.0,21.9,29,29.79,10.0,NNE,21.9,33.4,N/A,,Clear,20,2013-09-26 16:56:00
10:56 AM,57.0,21.0,25,29.78,10.0,NNE,19.6,28.8,N/A,,Clear,30,2013-09-26 17:56:00
11:56 AM,60.1,18.0,20,29.78,10.0,North,15.0,27.6,N/A,,Clear,10,2013-09-26 18:56:00
12:56 PM,62.1,16.0,17,29.78,10.0,NNW,19.6,29.9,N/A,,Clear,330,2013-09-26 19:56:00
1:56 PM,62.1,15.1,16,29.76,10.0,North,17.3,33.4,N/A,,Clear,360,2013-09-26 20:56:00
2:56 PM,63.0,14.0,15,29.75,10.0,North,18.4,32.2,N/A,,Clear,360,2013-09-26 21:56:00
3:56 PM,63.0,16.0,16,29.75,10.0,North,24.2,32.2,N/A,,Clear,10,2013-09-26 22:56:00
4:56 PM,61.0,17.1,18,29.77,10.0,North,20.7,31.1,N/A,,Clear,360,2013-09-26 23:56:00
5:56 PM,57.0,18.0,22,29.79,10.0,North,17.3,25.3,N/A,,Clear,360,2013-09-27 00:56:00
6:56 PM,55.0,18.0,23,29.83,10.0,North,16.1,24.2,N/A,,Clear,350,2013-09-27 01:56:00
7:56 PM,54.0,19.9,26,29.86,10.0,North,19.6,29.9,N/A,,Clear,350,2013-09-27 02:56:00
8:56 PM,50.0,24.1,36,29.91,10.0,North,13.8,25.3,N/A,,Clear,10,2013-09-27 03:56:00
9:56 PM,48.9,24.1,38,29.95,10.0,North,17.3,21.9,N/A,,Clear,350,2013-09-27 04:56:00
10:56 PM,50.0,25.0,38,29.95,10.0,North,19.6,27.6,N/A,,Clear,350,2013-09-27 05:56:00
11:56 PM,46.9,23.0,39,29.98,10.0,North,9.2,-,N/A,,Clear,360,2013-09-27 06:56:00